DECAYED

COSMOS 2251 DEB, 34958 (Decayed)

Orbit data source: Space-Track

COSMOS 2251 DEB, 34958 was space debris in LEO originally from a launch on Wed, 16 Jun 1993 UTC launched from the Plesetsk Missile And Space Complex (PKMTR). The debris from Iridium 33, an American commercial communications satellite, has been tracked extensively since its accidental collision with the defunct Russian satellite Cosmos 2251 in 2009. This event, occurring at high speed in low Earth orbit (LEO), generated thousands of pieces of space debris, significantly increasing the risk of further collisions. The Iridium 33 debris cloud has impacted space traffic management and orbital debris mitigation strategies, making it a subject of ongoing study in space situational awareness.

Loading next visibility...
Identifier
34958, 1993-036AEM
Orbit
Decayed
Country
Flag of CISCIS
Related business
Manufacturer
Unknown
Mission
Decayed spacecraft
Bus & Motor
Unknown
Mass
Unknown
Launch date (UTC)
1993-06-16 (33 years ago)
Launch vehicle
Unknown
Launch site
Plesetsk Missile And Space Complex (PKMTR)
Object type
Payload
Rocket body
Debris
Shape & HBR
Unknown shape, 0.1 m
Radar Cross Section
Medium (>0.1 m² and <1 m²)

Expand to show TLE details & history
Last TLE update: 10 months ago

TLE from 10 months ago
0 COSMOS 2251 DEB
1 34958U 93036AEM 25306.96866898  .01835994  25125-2  25177-2 0  9996
2 34958  73.9731  37.1674 0005057  15.6253 344.5144 16.06691736896753
Epoch: 2025-11-02T23:14Z
TLE epoch observation values (Epoch: 2025-11-02T23:14:52.999Z)
Latitude
-0.00007°
Longitude
5.96977°
Altitude
255.511 km
Speed
7.756 km/s
True Right ascension
02h 28m 40s
True Declination
0° 00' 00"
Sunlit
Object was in full shadow at epoch
Visualization orbit readout
Latitude
Unknown
Longitude
Unknown
Altitude
Unknown
Speed
Unknown
Apparent Right ascension
Unknown
Apparent Declination
Unknown
Sunlit
N/A
Visualization observer readout
Local Sidereal Time
09:33:28
Azimuth
Unknown
Elevation
Unknown
Doppler factor
Unknown
Orbital elements
Apogee altitude
256.732 km
Perigee altitude
250.025 km
Semi-major axis
6,631.516 km
Eccentricity
0.00051
Inclination
73.9731°
RAAN
37.1674°
Arg. of periapsis
15.6253°
True anomaly
344.49892°
Mean anomaly
344.5144°
Eccentric anomaly
344.50666°
Mean motion
4.01906 °/min
Orbital period
89.57 mins
BSTAR
0.0025177
Loading maneuver chart data...
Computing Atmospheric mass density...

Documentation

Showing up to 5 results
|